Back to catalog

STARLINK-32528

AliveCommunicationsVLEO
NORAD 61724·PAYLOAD·🇺🇸 United States

Launched Oct 30, 2024 from Cape Canaveral Space Force Station

Loading…

Next Passes (next 24 hours)

TLE

FreshSource: CelesTrak SupGP

Epoch: Sep 15, 2026, 02:50 UTC

1 61724C 24196T   26258.11854167  .00023534  00000+0  69517-3 0  2583
2 61724  53.1579 298.6325 0001275  91.0976 100.1886 15.34385443    19

Track STARLINK-32528 in real time with AllMySat

Download on the App Store